Stations météo

réclame
Mon MeteoGroup
Lus-La-Croix-Haute, France (7587): Température de l'air & dewpoint: 19.09.2018 09:00:00 - 25.09.2018 09:00:00 (CEST)Lus-La-Croix-Haute, France (7587): Vitesse du vent & gusts: 19.09.2018 09:00:00 - 25.09.2018 09:00:00 (CEST)Lus-La-Croix-Haute, France (7587): Direction du vent: 19.09.2018 09:00:00 - 25.09.2018 09:00:00 (CEST)Lus-La-Croix-Haute, France (7587): Quantités de précipitations: 19.09.2018 09:00:00 - 25.09.2018 09:00:00 (CEST)
Date & Time tt [°C] td [°C] ff [km/h] ff [knt] fx [km/h] fx [knt] dd rr [mm]
25.09.2018 09:00:00 7,7 4,6 2 1 5 3 NE 0,0
25.09.2018 08:00:00 6,2 3,9 2 1 8 4 NNE -
25.09.2018 07:00:00 6,3 3,5 2 1 9 5 SW 0,0
25.09.2018 06:00:00 6,6 3,6 5 3 13 7 NNW 0,0
25.09.2018 05:00:00 6,8 3,8 4 2 9 5 SSE 0,0
25.09.2018 04:00:00 6,8 3,6 4 2 8 4 WNW 0,0
25.09.2018 03:00:00 7,2 3,8 2 1 16 9 N 0,0
25.09.2018 02:00:00 8,2 3,6 5 3 21 11 NW -
25.09.2018 01:00:00 8,4 4,2 2 1 15 8 NNW 0,0
25.09.2018 00:00:00 8,3 4,1 4 2 22 12 S 0,0
24.09.2018 23:00:00 8,4 4,2 13 7 31 17 NNW 0,0
24.09.2018 22:00:00 8,8 4,4 9 5 37 20 NNW 0,0
24.09.2018 21:00:00 8,9 4,1 9 5 26 14 N 0,0
24.09.2018 20:00:00 9,4 4,0 11 6 37 20 N -
24.09.2018 19:00:00 10,5 4,2 15 8 46 25 N 0,0
24.09.2018 18:00:00 11,6 4,3 15 8 39 21 N 0,0
24.09.2018 17:00:00 12,9 5,6 16 9 50 27 NNW 0,0
24.09.2018 16:00:00 13,2 5,6 22 12 46 25 NNW 0,0
24.09.2018 15:00:00 13,2 5,4 21 11 48 26 NNW 0,0
24.09.2018 14:00:00 12,8 4,7 22 12 54 29 NNW -
24.09.2018 13:00:00 11,6 5,7 15 8 35 19 NNW 0,0
24.09.2018 12:00:00 10,7 4,8 11 6 41 22 NNW 0,0
24.09.2018 11:00:00 10,2 4,6 8 4 41 22 N 0,0
24.09.2018 10:00:00 10,0 4,4 15 8 59 32 NNW 0,0
24.09.2018 09:00:00 9,7 5,9 22 12 54 29 NW 0,0
24.09.2018 08:00:00 10,5 5,9 18 10 72 39 N -
24.09.2018 07:00:00 11,5 6,2 28 15 85 46 N 0,0
24.09.2018 06:00:00 12,5 8,4 21 11 63 34 N 0,0
24.09.2018 05:00:00 13,3 8,6 24 13 81 44 N 0,0
24.09.2018 04:00:00 13,0 9,6 22 12 74 40 N 0,8
24.09.2018 03:00:00 14,4 11,2 18 10 63 34 N 0,0
24.09.2018 02:00:00 17,9 13,2 18 10 39 21 NW -
24.09.2018 01:00:00 18,4 12,8 11 6 29 16 NW 0,0
24.09.2018 00:00:00 18,7 13,1 8 4 34 18 NNW 0,0
23.09.2018 23:00:00 19,4 13,3 11 6 54 29 NW 0,0
23.09.2018 22:00:00 19,7 12,5 8 4 18 10 N 0,0
23.09.2018 21:00:00 19,4 12,2 9 5 22 12 NW 0,0
23.09.2018 20:00:00 20,7 12,1 9 5 26 14 NW -
23.09.2018 19:00:00 23,3 12,0 8 4 41 22 NNE 0,0
23.09.2018 18:00:00 25,8 13,0 15 8 35 19 NW 0,0
23.09.2018 17:00:00 26,7 12,7 18 10 35 19 WNW 0,0
23.09.2018 16:00:00 27,5 12,7 15 8 34 18 WNW 0,0
23.09.2018 15:00:00 26,5 12,5 21 11 34 18 WNW 0,0
23.09.2018 14:00:00 25,9 12,4 13 7 39 21 NW -
23.09.2018 13:00:00 24,1 12,4 18 10 35 19 NW 0,0
23.09.2018 12:00:00 22,9 12,5 15 8 34 18 NW 0,0
23.09.2018 11:00:00 21,1 11,4 11 6 29 16 NNW 0,0
23.09.2018 10:00:00 19,1 10,9 9 5 26 14 NW 0,0
23.09.2018 09:00:00 15,9 9,3 11 6 21 11 NW 0,0
23.09.2018 08:00:00 14,2 4,7 13 7 28 15 NNW -
23.09.2018 07:00:00 14,0 4,8 11 6 24 13 NNW 0,0
23.09.2018 06:00:00 13,1 4,8 8 4 24 13 NNW 0,0
23.09.2018 05:00:00 13,8 3,3 4 2 31 17 NNW 0,0
23.09.2018 04:00:00 14,6 3,1 21 11 34 18 NW 0,0
23.09.2018 03:00:00 14,9 -1,7 8 4 29 16 NW 0,0
23.09.2018 02:00:00 14,3 -4,0 8 4 24 13 N -
23.09.2018 01:00:00 14,1 -0,4 8 4 18 10 NE 0,0
23.09.2018 00:00:00 13,5 3,0 4 2 11 6 N 0,0
22.09.2018 23:00:00 12,4 3,9 4 2 13 7 SSE 0,0
22.09.2018 22:00:00 13,6 4,5 8 4 22 12 NNW 0,0
22.09.2018 21:00:00 14,6 5,4 11 6 39 21 NNW 0,0
22.09.2018 20:00:00 15,6 6,8 22 12 42 23 NW -
22.09.2018 19:00:00 17,3 4,6 21 11 37 20 NW 0,0
22.09.2018 18:00:00 20,4 2,7 18 10 39 21 WNW 0,0
22.09.2018 17:00:00 21,2 1,4 21 11 44 24 WNW 0,0
22.09.2018 16:00:00 21,4 -0,6 26 14 42 23 WNW 0,0
22.09.2018 15:00:00 22,4 -3,9 22 12 41 22 NNW 0,0
22.09.2018 14:00:00 21,4 -6,3 22 12 46 25 NNW -
22.09.2018 13:00:00 16,6 8,0 24 13 48 26 WNW 0,0
22.09.2018 12:00:00 14,2 8,8 24 13 54 29 NW 0,0
22.09.2018 11:00:00 13,1 8,6 26 14 54 29 NW 0,0
22.09.2018 10:00:00 12,7 8,4 16 9 35 19 NNW 0,0
22.09.2018 09:00:00 9,9 7,7 5 3 34 18 E 0,0
22.09.2018 08:00:00 9,3 7,1 11 6 29 16 NW -
22.09.2018 07:00:00 9,8 7,4 5 3 31 17 N 0,0
22.09.2018 06:00:00 11,0 8,2 16 9 37 20 NW 0,0
22.09.2018 05:00:00 11,5 9,6 16 9 34 18 NW 0,0
22.09.2018 04:00:00 11,6 10,5 18 10 31 17 NW 0,0
22.09.2018 03:00:00 12,2 10,9 16 9 28 15 WNW 0,0
22.09.2018 02:00:00 13,3 11,0 5 3 21 11 NNW -
22.09.2018 01:00:00 13,9 11,2 9 5 28 15 NW 0,0
22.09.2018 00:00:00 14,6 11,2 16 9 29 16 NW 0,0
21.09.2018 23:00:00 14,5 11,5 16 9 35 19 NW 0,0
21.09.2018 22:00:00 15,2 12,5 11 6 31 17 NNW 0,0
21.09.2018 21:00:00 15,2 13,7 11 6 21 11 NNW 0,0
21.09.2018 20:00:00 16,4 13,9 5 3 52 28 NNW -
21.09.2018 19:00:00 21,7 9,9 13 7 29 16 NW 0,0
21.09.2018 18:00:00 22,5 8,9 11 6 37 20 WNW 0,0
21.09.2018 17:00:00 24,1 10,0 11 6 28 15 WNW 0,0
21.09.2018 16:00:00 25,5 10,1 11 6 35 19 WNW 0,0
21.09.2018 15:00:00 26,2 9,9 13 7 34 18 WNW 0,0
21.09.2018 14:00:00 25,7 9,1 8 4 29 16 W -
21.09.2018 13:00:00 25,8 10,4 5 3 18 10 SW 0,0
21.09.2018 12:00:00 23,9 9,8 4 2 13 7 SE 0,0
21.09.2018 11:00:00 18,6 11,4 2 1 8 4 NW 0,0
21.09.2018 10:00:00 13,1 11,8 0 0 5 3 N 0,0
21.09.2018 09:00:00 10,5 10,3 0 0 4 2 N 0,0
21.09.2018 08:00:00 8,6 8,3 2 1 5 3 SE -
21.09.2018 07:00:00 9,0 8,5 2 1 5 3 NNW 0,0
21.09.2018 06:00:00 9,3 8,8 4 2 5 3 N 0,0
21.09.2018 05:00:00 9,5 8,9 0 0 5 3 N 0,0
21.09.2018 04:00:00 10,1 9,5 0 0 5 3 N 0,0
21.09.2018 03:00:00 10,6 9,7 0 0 4 2 N 0,0
21.09.2018 02:00:00 11,5 10,2 2 1 8 4 N -
21.09.2018 01:00:00 11,9 10,1 2 1 5 3 SW 0,0
21.09.2018 00:00:00 12,7 10,2 2 1 5 3 N 0,0
20.09.2018 23:00:00 14,3 10,9 4 2 8 4 N 0,0
20.09.2018 22:00:00 15,4 10,8 0 0 9 5 N 0,0
20.09.2018 21:00:00 17,2 10,8 2 1 8 4 W 0,0
20.09.2018 20:00:00 20,1 11,0 4 2 24 13 N -
20.09.2018 19:00:00 22,2 11,3 13 7 29 16 NNW 0,0
20.09.2018 18:00:00 24,7 12,0 16 9 34 18 WNW 0,0
20.09.2018 17:00:00 24,0 11,3 11 6 26 14 NW 0,0
20.09.2018 16:00:00 25,2 11,4 15 8 28 15 WNW 0,0
20.09.2018 15:00:00 27,0 10,7 11 6 28 15 WNW 0,0
20.09.2018 14:00:00 25,6 9,8 15 8 35 19 WNW -
20.09.2018 13:00:00 23,9 10,9 18 10 35 19 WNW 0,0
20.09.2018 12:00:00 22,9 11,6 18 10 37 20 WNW 0,0
20.09.2018 11:00:00 21,7 12,3 11 6 28 15 NNW 0,0
20.09.2018 10:00:00 18,3 12,7 2 1 8 4 E 0,0
20.09.2018 09:00:00 13,3 11,9 0 0 9 5 N 0,2
20.09.2018 08:00:00 11,2 10,6 4 2 8 4 N -
20.09.2018 07:00:00 10,3 9,7 2 1 8 4 NNE 0,0
20.09.2018 06:00:00 10,7 9,9 4 2 8 4 N 0,0
20.09.2018 05:00:00 10,7 9,8 2 1 5 3 S 0,0
20.09.2018 04:00:00 11,1 9,8 2 1 8 4 ESE 0,0
20.09.2018 03:00:00 11,8 10,4 4 2 8 4 ESE 0,0
20.09.2018 02:00:00 12,7 10,8 2 1 8 4 NNW -
20.09.2018 01:00:00 13,5 10,7 2 1 8 4 E 0,0
20.09.2018 00:00:00 14,5 11,1 4 2 8 4 SSE 0,0
19.09.2018 23:00:00 16,2 11,6 4 2 15 8 E 0,0
19.09.2018 22:00:00 15,8 11,4 4 2 13 7 ESE 0,0
19.09.2018 21:00:00 17,2 11,5 4 2 9 5 N 0,0
19.09.2018 20:00:00 18,5 11,6 8 4 21 11 NNW -
19.09.2018 19:00:00 20,6 12,0 11 6 24 13 NW 0,0
19.09.2018 18:00:00 21,8 12,1 13 7 31 17 NW 0,0
19.09.2018 17:00:00 24,8 11,7 16 9 39 21 NW 0,0
19.09.2018 16:00:00 25,6 9,8 16 9 35 19 WNW 0,0
19.09.2018 15:00:00 25,5 9,7 16 9 37 20 WNW 0,0
19.09.2018 14:00:00 24,6 10,8 16 9 34 18 NW -
19.09.2018 13:00:00 23,8 11,1 13 7 28 15 WNW 0,0
19.09.2018 12:00:00 22,0 12,3 8 4 22 12 NNW 0,0
19.09.2018 11:00:00 19,8 14,8 4 2 9 5 NE 0,0
19.09.2018 10:00:00 15,2 13,9 2 1 5 3 W 0,0
19.09.2018 09:00:00 11,9 11,7 2 1 5 3 SSE 0,0

tt = Température de l'air
td = dewpoint
ff = Vitesse du vent
fx = gusts
dd = Direction du vent
rr = Quantités de précipitations

stations d'obs. à proximité